Location: Ammerl�gen
(47.2167°N, 9.6000°E)
Time: 04:47:57
(UTC+00:00)

Cosmos 389 Rocket - Pass Details

Date: 21 April 2021
Orbit: 441 x 472 km, 81.1° (Epoch: 16 May)

Event Time Altitude Azimuth Distance (km) Brightness Sun altitude
Rises 19:50:43 0° 197° (SSW) 2,472 6.0 -14.5°
Reaches altitude 10° 19:52:48 10° 201° (SSW) 1,609 5.0 -14.8°
Maximum altitude 19:56:17 63° 283° (WNW) 526 2.9 -15.3°
Drops below altitude 10° 19:59:51 10° 5° (N) 1,639 5.7 -15.8°
Sets 20:01:59 0° 9° (N) 2,525 6.6 -16.0°
